Waarnemingen

Advertentie
Mijn weer
Vlissingen, Nederland (6310): temperatuur & dauwpunt: 14.10.2018 04:00:00 - 20.10.2018 04:00:00 (CEST)Vlissingen, Nederland (6310): temperatuur 5cm: 14.10.2018 04:00:00 - 20.10.2018 04:00:00 (CEST)Vlissingen, Nederland (6310): windsnelheid & windstoten: 14.10.2018 04:00:00 - 20.10.2018 04:00:00 (CEST)Vlissingen, Nederland (6310): windrichting: 14.10.2018 04:00:00 - 20.10.2018 04:00:00 (CEST)Vlissingen, Nederland (6310): luchtdruk: 14.10.2018 04:00:00 - 20.10.2018 04:00:00 (CEST)Vlissingen, Nederland (6310): zicht: 14.10.2018 04:00:00 - 20.10.2018 04:00:00 (CEST)Vlissingen, Nederland (6310): neerslag: 14.10.2018 04:00:00 - 20.10.2018 04:00:00 (CEST)
Datum & Tijd tt [°C] td [°C] tt 5cm [°C] ff [km/u] ff [kn] fx [km/u] fx [kn] dd ppp [hPa] vv [km] rr [mm]
20.10.2018 04:00:00 10,3 8,6 8,6 4 2 7 4 - 1028,6 10 0,0
20.10.2018 03:00:00 9,7 8,3 7,7 9 5 11 6 ONO 1028,6 10 0,0
20.10.2018 02:00:00 10,0 7,8 7,9 9 5 11 6 NNO 1028,7 10 0,0
20.10.2018 01:00:00 10,1 7,7 8,9 9 5 11 6 NNO 1028,5 10 0,0
20.10.2018 00:00:00 10,3 7,6 9,0 9 5 14 8 N 1027,9 10 0,0
19.10.2018 23:00:00 10,8 8,2 9,3 8 4 11 6 NNO 1028,1 10 0,0
19.10.2018 22:00:00 11,2 8,0 10,1 13 7 18 10 NNO 1027,8 10 0,0
19.10.2018 21:00:00 11,3 8,1 10,2 11 6 18 10 N 1027,0 10 0,0
19.10.2018 20:00:00 11,6 8,3 10,6 13 7 18 10 N 1026,4 10 0,0
19.10.2018 19:00:00 12,7 8,6 11,9 13 7 18 10 N 1026,0 10 0,0
19.10.2018 18:00:00 13,9 8,9 13,6 15 8 25 14 N 1025,4 10 0,0
19.10.2018 17:00:00 15,1 9,2 15,3 13 7 18 10 NNO 1024,9 10 0,0
19.10.2018 16:00:00 15,4 10,0 16,3 9 5 14 8 N 1025,0 10 0,0
19.10.2018 15:00:00 15,1 10,2 16,4 9 5 14 8 NNO 1025,0 10 0,0
19.10.2018 14:00:00 14,6 10,1 16,0 9 5 14 8 NNO 1025,5 10 0,0
19.10.2018 13:00:00 13,9 9,7 16,2 9 5 14 8 NNO 1025,6 10 0,0
19.10.2018 12:00:00 12,7 9,1 14,3 11 6 14 8 NO 1025,8 10 0,0
19.10.2018 11:00:00 11,7 8,7 12,4 18 10 25 14 ONO 1025,4 10 0,0
19.10.2018 10:00:00 11,2 8,6 11,4 16 9 25 14 NO 1025,3 10 0,0
19.10.2018 09:00:00 10,5 8,4 10,3 16 9 22 12 NO 1025,1 10 0,0
19.10.2018 08:00:00 10,5 8,1 10,3 18 10 22 12 ONO 1025,0 10 0,0
19.10.2018 07:00:00 10,7 8,4 10,5 18 10 25 14 ONO 1025,0 10 0,0
19.10.2018 06:00:00 10,8 8,6 10,6 16 9 22 12 ONO 1024,9 10 0,0
19.10.2018 05:00:00 11,2 8,7 10,9 15 8 18 10 ONO 1024,9 10 0,0
19.10.2018 04:00:00 10,9 8,6 10,4 16 9 22 12 NO 1025,0 10 0,0
19.10.2018 03:00:00 11,0 8,3 10,5 13 7 18 10 ONO 1025,1 10 0,0
19.10.2018 02:00:00 11,2 8,4 10,4 16 9 25 14 NO 1025,0 10 0,0
19.10.2018 01:00:00 12,0 9,1 10,9 18 10 22 12 ONO 1025,1 32 0,0
19.10.2018 00:00:00 11,7 9,0 11,0 15 8 22 12 NO 1025,3 10 0,0
18.10.2018 23:00:00 12,3 8,8 11,4 11 6 18 10 ONO 1025,4 10 0,0
18.10.2018 22:00:00 13,0 8,9 12,1 15 8 25 14 NO 1025,6 10 0,0
18.10.2018 21:00:00 12,8 8,9 11,9 13 7 18 10 NO 1025,6 10 0,0
18.10.2018 20:00:00 13,3 9,0 12,2 15 8 25 14 NNO 1025,3 10 0,0
18.10.2018 19:00:00 14,2 9,4 12,9 13 7 22 12 NNO 1025,1 10 0,0
18.10.2018 18:00:00 15,1 8,6 14,7 24 13 32 18 NNO 1024,6 10 0,0
18.10.2018 17:00:00 15,5 9,6 15,7 24 13 36 19 NNO 1024,6 10 0,0
18.10.2018 16:00:00 15,6 9,5 15,8 21 11 32 18 NNO 1024,9 10 0,0
18.10.2018 15:00:00 15,8 9,6 16,5 21 11 32 18 NNO 1025,1 10 0,0
18.10.2018 14:00:00 15,9 10,0 17,5 21 11 32 18 NNO 1025,1 10 0,0
18.10.2018 13:00:00 15,6 11,2 15,5 21 11 29 16 NO 1025,5 10 0,0
18.10.2018 12:00:00 15,0 10,5 15,3 22 12 32 18 NO 1025,5 10 -
18.10.2018 11:00:00 - - - 22 12 32 18 NO 1025,3 - -
18.10.2018 10:00:00 14,3 11,6 14,1 18 10 25 14 NO 1024,9 10 0,0
18.10.2018 09:00:00 13,8 11,8 13,3 15 8 18 10 NO 1024,5 10 0,0
18.10.2018 08:00:00 13,6 12,4 13,3 16 9 22 12 NO 1024,1 10 0,0
18.10.2018 07:00:00 13,7 12,6 13,5 24 13 36 19 NO 1023,7 10 0,0
18.10.2018 06:00:00 13,6 12,6 13,3 5 3 11 6 N 1023,5 9 0,0
18.10.2018 05:00:00 14,0 12,2 13,0 5 3 11 6 ONO 1023,1 10 0,0
18.10.2018 04:00:00 14,5 12,1 14,0 5 3 7 4 N 1023,1 10 0,0
18.10.2018 03:00:00 14,4 11,9 14,0 8 4 11 6 N 1023,2 10 0,0
18.10.2018 02:00:00 13,9 11,7 13,1 13 7 14 8 NNO 1023,0 10 0,0
18.10.2018 01:00:00 13,3 11,3 12,2 7 4 11 6 N 1022,9 26 0,0
18.10.2018 00:00:00 12,9 11,1 11,8 8 4 11 6 NNO 1022,7 10 0,0
17.10.2018 23:00:00 13,2 11,1 12,0 9 5 14 8 N 1022,2 10 0,0
17.10.2018 22:00:00 13,4 11,3 11,7 5 3 11 6 N 1021,9 10 0,0
17.10.2018 21:00:00 13,8 11,1 12,6 8 4 11 6 NNO 1021,3 10 0,0
17.10.2018 20:00:00 14,2 11,2 13,2 9 5 14 8 N 1021,0 10 0,0
17.10.2018 19:00:00 15,2 11,4 14,2 13 7 18 10 NNW 1020,5 10 0,0
17.10.2018 18:00:00 16,3 11,1 15,9 13 7 18 10 NNW 1020,0 10 0,0
17.10.2018 17:00:00 17,1 11,2 17,3 15 8 22 12 NW 1020,0 10 0,0
17.10.2018 16:00:00 17,6 11,5 19,0 11 6 22 12 NW 1019,8 10 0,0
17.10.2018 15:00:00 16,5 11,0 17,0 16 9 22 12 WNW 1019,8 10 0,0
17.10.2018 14:00:00 16,8 11,7 18,0 18 10 25 14 WNW 1019,7 10 0,0
17.10.2018 13:00:00 16,4 13,3 17,6 11 6 22 12 WNW 1019,6 10 0,0
17.10.2018 12:00:00 16,1 14,5 17,1 8 4 14 8 WZW 1019,8 6 0,0
17.10.2018 11:00:00 15,4 14,2 16,2 8 4 11 6 ZW 1019,6 5 0,0
17.10.2018 10:00:00 14,9 13,9 15,0 5 3 11 6 WZW 1019,4 4,3 0,0
17.10.2018 09:00:00 13,8 13,4 13,6 11 6 14 8 WZW 1019,1 3,8 0,0
17.10.2018 08:00:00 13,6 13,1 13,0 11 6 14 8 WZW 1018,7 3,6 0,0
17.10.2018 07:00:00 13,4 13,0 12,7 11 6 14 8 WZW 1018,6 3,4 0,0
17.10.2018 06:00:00 13,5 13,3 13,0 13 7 14 8 WZW 1018,3 3,0 0,0
17.10.2018 05:00:00 14,0 13,8 13,5 13 7 14 8 ZW 1017,9 2,5 0,0
17.10.2018 04:00:00 14,5 14,1 14,0 13 7 14 8 ZW 1018,0 4,2 0,0
17.10.2018 03:00:00 14,9 14,3 14,3 11 6 14 8 WZW 1018,1 7 0,0
17.10.2018 02:00:00 15,8 14,6 15,1 15 8 18 10 W 1017,9 10 0,0
17.10.2018 01:00:00 15,9 14,8 15,2 16 9 25 14 W 1018,1 10 0,0
17.10.2018 00:00:00 16,2 15,1 15,7 22 12 29 16 W 1018,0 10 0,0
16.10.2018 23:00:00 16,4 13,1 15,0 13 7 18 10 WZW 1017,8 10 0,0
16.10.2018 22:00:00 18,0 13,4 16,4 18 10 22 12 Z 1017,7 10 0,0
16.10.2018 21:00:00 18,0 12,6 14,9 5 3 14 8 ZZW 1017,7 10 0,0
16.10.2018 20:00:00 18,9 13,7 16,5 15 8 18 10 Z 1017,5 10 0,0
16.10.2018 19:00:00 18,6 14,3 16,8 13 7 14 8 ZZO 1017,3 10 0,0
16.10.2018 18:00:00 20,8 12,9 19,6 15 8 18 10 ZO 1017,2 10 0,0
16.10.2018 17:00:00 20,7 12,6 20,7 16 9 22 12 ZO 1017,1 5 0,0
16.10.2018 16:00:00 21,7 11,0 22,1 11 6 14 8 OZO 1017,5 10 0,0
16.10.2018 15:00:00 20,9 12,1 21,8 8 4 11 6 OZO 1017,7 10 0,0
16.10.2018 14:00:00 19,2 12,9 20,8 9 5 11 6 OZO 1017,8 10 0,0
16.10.2018 13:00:00 18,2 13,7 19,6 8 4 14 8 OZO 1018,0 10 0,0
16.10.2018 12:00:00 18,1 13,1 18,7 5 3 11 6 OZO 1017,9 2,4 0,0
16.10.2018 11:00:00 16,9 12,3 17,7 8 4 14 8 ZO 1017,8 10 0,0
16.10.2018 10:00:00 15,3 11,5 15,0 5 3 11 6 Z 1017,7 10 0,0
16.10.2018 09:00:00 15,2 11,9 14,1 9 5 14 8 Z 1017,3 10 0,0
16.10.2018 08:00:00 15,3 11,8 13,8 9 5 14 8 Z 1016,8 10 0,0
16.10.2018 07:00:00 15,5 13,3 14,4 11 6 14 8 ZZO 1016,4 10 0,0
16.10.2018 06:00:00 15,4 13,7 14,0 8 4 11 6 ZO 1016,2 10 0,0
16.10.2018 05:00:00 15,5 15,2 13,8 9 5 11 6 OZO 1015,9 4,3 0,0
16.10.2018 04:00:00 14,8 14,2 13,4 8 4 11 6 O 1016,0 5 0,0
16.10.2018 03:00:00 15,4 14,8 13,4 5 3 11 6 ZO 1015,8 5 0,0
16.10.2018 02:00:00 15,1 14,7 13,0 11 6 14 8 O 1015,6 4,7 0,0
16.10.2018 01:00:00 15,1 14,1 13,9 11 6 14 8 NNO 1015,6 10 0,0
16.10.2018 00:00:00 15,3 14,4 13,4 5 3 7 4 ONO 1015,3 10 0,0
15.10.2018 23:00:00 16,0 14,8 13,7 8 4 7 4 O 1015,1 10 0,0
15.10.2018 22:00:00 16,4 15,0 14,7 8 4 11 6 OZO 1014,6 10 0,0
15.10.2018 21:00:00 16,8 15,0 15,1 5 3 7 4 ONO 1014,2 10 0,0
15.10.2018 20:00:00 17,9 15,0 17,1 8 4 11 6 N 1013,9 10 0,0
15.10.2018 19:00:00 18,9 14,7 18,2 11 6 18 10 NNW 1013,2 10 0,0
15.10.2018 18:00:00 20,3 14,3 19,9 16 9 29 16 WNW 1012,7 10 0,0
15.10.2018 17:00:00 22,3 13,6 22,8 18 10 25 14 W 1011,8 10 0,0
15.10.2018 16:00:00 21,4 14,2 21,3 18 10 22 12 W 1011,5 10 0,0
15.10.2018 15:00:00 21,2 14,1 22,1 24 13 32 18 ZW 1011,1 10 0,0
15.10.2018 14:00:00 21,0 13,6 22,2 29 16 40 21 ZW 1011,1 10 0,0
15.10.2018 13:00:00 21,0 13,8 21,1 28 15 36 19 ZW 1010,9 10 0,0
15.10.2018 12:00:00 20,6 13,9 21,7 24 13 36 19 ZZW 1010,6 10 0,0
15.10.2018 11:00:00 18,5 13,4 19,4 21 11 25 14 Z 1010,3 10 0,0
15.10.2018 10:00:00 17,4 12,6 17,6 21 11 25 14 Z 1009,8 10 0,0
15.10.2018 09:00:00 16,7 12,1 16,2 22 12 29 16 Z 1009,1 10 0,0
15.10.2018 08:00:00 16,9 12,3 15,9 21 11 29 16 Z 1008,3 10 0,0
15.10.2018 07:00:00 17,0 12,5 16,0 21 11 29 16 ZZO 1008,0 10 0,0
15.10.2018 06:00:00 16,8 12,7 15,5 15 8 22 12 ZZO 1007,8 10 0,0
15.10.2018 05:00:00 16,9 12,2 15,6 13 7 18 10 ZZO 1007,8 10 0,0
15.10.2018 04:00:00 16,6 12,7 15,6 15 8 18 10 OZO 1007,7 10 0,0
15.10.2018 03:00:00 17,1 12,9 16,0 14 8 14 8 ZO 1007,5 32 0,0
15.10.2018 02:00:00 17,6 12,9 16,2 11 6 14 8 OZO 1007,5 10 0,0
15.10.2018 01:00:00 17,4 13,0 15,5 11 6 14 8 OZO 1007,3 10 0,0
15.10.2018 00:00:00 18,0 12,7 16,6 16 9 18 10 ZO 1007,3 10 0,0
14.10.2018 23:00:00 17,5 14,2 16,5 21 11 22 12 ZO 1007,4 10 0,0
14.10.2018 22:00:00 18,1 13,7 17,0 18 10 22 12 ZO 1007,1 10 0,0
14.10.2018 21:00:00 18,9 13,0 17,0 13 7 14 8 ZZO 1006,9 10 0,0
14.10.2018 20:00:00 18,8 14,2 17,5 15 8 18 10 ZZO 1006,5 10 0,0
14.10.2018 19:00:00 20,0 13,6 17,5 15 8 18 10 Z 1006,3 10 0,0
14.10.2018 18:00:00 20,4 14,1 19,9 22 12 25 14 ZZW 1005,9 10 0,0
14.10.2018 17:00:00 20,9 13,9 21,0 29 16 32 18 Z 1005,7 10 0,0
14.10.2018 16:00:00 21,2 13,6 21,8 31 17 43 23 Z 1005,5 10 0,0
14.10.2018 15:00:00 20,7 14,0 22,0 29 16 36 19 Z 1005,4 10 0,0
14.10.2018 14:00:00 20,3 13,5 21,3 35 19 43 23 Z 1005,7 10 0,0
14.10.2018 13:00:00 19,9 13,6 21,3 35 19 43 23 Z 1006,0 10 0,0
14.10.2018 12:00:00 19,5 13,9 20,4 29 16 36 19 Z 1006,0 10 0,0
14.10.2018 11:00:00 18,2 13,6 18,8 24 13 32 18 Z 1006,6 10 0,0
14.10.2018 10:00:00 17,0 13,3 16,9 21 11 25 14 ZZO 1007,1 10 0,0
14.10.2018 09:00:00 16,0 13,6 15,5 24 13 29 16 ZO 1007,0 10 0,0
14.10.2018 08:00:00 16,1 13,8 15,2 18 10 25 14 ZO 1007,1 10 0,0
14.10.2018 07:00:00 16,4 14,2 15,5 13 7 25 14 OZO 1007,6 10 0,0
14.10.2018 06:00:00 16,6 14,6 15,5 9 5 18 10 ZZO 1008,2 10 0,0
14.10.2018 05:00:00 16,4 14,9 15,0 5 3 11 6 ZZO 1008,7 10 0,0
14.10.2018 04:00:00 16,9 14,8 16,0 16 9 18 10 Z 1009,1 10 0,0

tt = temperatuur
td = dauwpunt
tt 5cm = temperatuur 5cm
ff = windsnelheid
fx = windstoten
dd = windrichting
ppp = luchtdruk
vv = zicht
rr = neerslag

Weerstations in de omgeving